Weather observations for the past three days for
Vance Brand Airport
Imperial (Metric)
Date Time (mdt) Wind (mph) Vis. (mi.) Weather Sky Cond. Temperature (ºF) Relative Humidity Wind Chill (°F) Heat Index (°F) Pressure Precipitation (in)
Air Dwpt 6 hour altimeter (in) sea level (mb) 1 hr 3 hr 6 hr
Max. Min.
18 07:55 Calm 10.00 Fair CLR 67.1 53.2 61% 30.29 0.0
18 07:35 Calm 10.00 Fair CLR 65.1 53.1 65% 30.29 0.0
18 07:15 Calm 10.00 Fair CLR 62.2 52.2 70% 30.28 0.0
18 06:55 SW 3 10.00 Fair CLR 59.5 52.3 77% 30.28 0.0
18 06:35 W 5 10.00 Fair CLR 57.2 50.9 80% 30.28 0.0
18 06:15 Calm 10.00 Fair CLR 57.2 50.9 80% 30.28 0.0
18 05:55 Calm 10.00 Fair CLR 57.2 50.9 63.9 56.3 80% 30.28 0.0
18 05:35 Calm 10.00 Fair CLR 57.4 51.4 81% 30.28 0.0
18 05:15 Calm 10.00 Fair CLR 58.6 51.8 78% 30.28 0.0
18 04:55 Calm 10.00 Fair CLR 57 51.1 81% 30.27 0.0
18 04:35 Calm 10.00 Fair CLR 57.9 51.3 79% 30.27 0.0
18 04:15 Calm 10.00 Fair CLR 57.9 52.5 82% 30.27 0.0
18 03:55 N 3 10.00 Fair CLR 56.5 50.9 82% 30.27 0.0
18 03:35 Calm 10.00 Fair CLR 57.7 51.8 81% 30.27 0.0
18 03:15 Calm 10.00 Fair CLR 58.1 51.8 80% 30.28 0.0
18 02:55 W 3 10.00 Fair CLR 58.3 51.8 79% 30.29 0.0
18 02:35 Calm 7.00 Fair CLR 58.3 51.8 79% 30.29 0.0
18 02:15 W 6 10.00 Fair CLR 59 52 78% 30.3 0.0
18 01:55 Calm 10.00 Fair CLR 60.4 52.5 75% 30.31 0.0
18 01:35 Calm 10.00 Fair CLR 60.6 52.9 76% 30.32 0.0
18 01:15 Calm 10.00 Fair CLR 61.5 53.8 76% 30.31 0.0
18 00:55 Calm 10.00 Fair CLR 61.9 53.4 74% 30.32 0.0
18 00:35 Calm 10.00 Fair CLR 62.8 52.7 70% 30.33 0.0
18 00:15 NW 7 10.00 Fair CLR 62.4 52.5 70% 30.33 0.0
17 23:55 SW 5 10.00 Fair CLR 65.1 51.3 86.4 65.1 61% 30.33 0.0
17 23:35 Calm 10.00 Fair CLR 65.7 50.5 58% 30.35 0.0
17 23:15 Calm 10.00 Partly Cloudy SCT120 68.2 50.7 54% 30.36 0.0
17 22:55 SE 5 10.00 Partly Cloudy SCT120 68.9 50.5 52% 30.35 0.0
17 22:35 S 5 10.00 Fair CLR 68.2 50.9 54% 30.36 0.0
17 22:15 S 5 10.00 Fair CLR 68.5 51.3 54% 30.36 0.0
17 21:55 SW 6 10.00 Fair CLR 68.5 51.4 55% 30.38 0.0
17 21:35 SW 6 10.00 Fair CLR 68.9 50.5 52% 30.38 0.0
17 21:15 Calm 10.00 Fair CLR 69.6 50.5 51% 30.39 0.0
17 20:55 E 5 10.00 Partly Cloudy SCT080 69.6 50.7 51% 30.39 0.0
17 20:35 E 8 10.00 Mostly Cloudy BKN080 71.4 50.4 48% 30.39 0.0
17 20:15 E 8 10.00 Mostly Cloudy BKN080 72 49.5 45% 30.38 0.0
17 19:55 E 15 G 22 10.00 Mostly Cloudy BKN080 BKN110 73.4 47.5 40% 30.38 0.0
17 19:35 NE 9 G 18 10.00 Mostly Cloudy BKN100 74.7 49.6 41% 30.36 0.0
17 19:15 NE 20 G 24 10.00 Overcast OVC110 75.7 50.2 41% 78 30.33 0.0
17 18:55 E 18 G 26 10.00 Mostly Cloudy BKN110 77 49.5 38% 78 30.3 0.0
17 18:35 E 21 G 29 10.00 Fair and Breezy CLR 79.2 47.3 33% 79 30.27 0.0
17 18:15 E 8 10.00 Fair CLR 86 41.4 21% 83 30.25 0.0
17 17:55 Calm 10.00 Fair CLR 86.4 40.8 91 77.5 20% 83 30.24 0.0
17 17:35 Calm 10.00 Fair CLR 87.6 41 19% 84 30.23 0.0
17 17:15 S 3 10.00 Partly Cloudy SCT120 86.4 41.4 21% 83 30.23 0.0
17 16:55 SW 3 10.00 Partly Cloudy SCT120 86.5 40.6 20% 83 30.23 0.0
17 16:35 W 6 10.00 Fair CLR 88.7 42.1 20% 85 30.24 0.0
17 16:15 W 7 10.00 Fair CLR 91 44.8 20% 87 30.24 0.0
17 15:55 W 5 7.00 Fair CLR 88.7 45 22% 85 30.24 0.0
17 15:35 SW 7 10.00 Fair CLR 88.7 45.3 22% 85 30.25 0.0
17 15:15 W 6 7.00 Partly Cloudy SCT031 SCT040 SCT048 86.5 48.6 27% 84 30.25 0.0
17 14:55 W 9 10.00 Light Rain SCT031 BKN075 OVC100 79.9 56.1 44% 80 30.27 0.0
17 14:35 W 5 G 12 10.00 Light Rain OVC100 78.1 53.1 42% 79 30.29 0.0
17 14:15 NW 9 10.00 Overcast OVC110 80.6 50.7 35% 80 30.31 0.0
17 13:55 NW 8 7.00 Mostly Cloudy BKN120 80.6 51.1 36% 80 30.3 0.0
17 13:35 NW 6 7.00 Mostly Cloudy BKN120 81.3 50 34% 80 30.3 0.0
17 13:15 NE 5 10.00 Fair CLR 82.9 47.3 29% 81 30.3 0.0
17 12:55 Calm 10.00 Fair CLR 85.1 47.5 27% 83 30.3 0.0
17 12:35 Calm 10.00 Fair CLR 85.3 48 27% 83 30.3 0.0
17 12:15 E 6 10.00 Fair CLR 84.4 48 28% 82 30.31 0.0
17 11:55 E 8 10.00 Fair CLR 84 48.7 84.2 61 29% 82 30.31 0.0
17 11:35 E 7 10.00 Fair CLR 81.9 48.9 32% 81 30.31 0.0
17 11:15 E 6 10.00 Fair CLR 80.8 48.4 32% 80 30.32 0.0
17 10:55 Calm 10.00 Fair CLR 81 48 32% 80 30.32 0.0
17 10:35 S 3 10.00 Fair CLR 78.8 47.8 34% 79 30.33 0.0
17 10:15 Calm 10.00 Fair CLR 76.1 48.4 38% 78 30.34 0.0
17 09:55 Calm 10.00 Fair CLR 75.7 48.2 38% 78 30.34 0.0
17 09:35 Calm 10.00 Fair CLR 76.3 48 37% 78 30.35 0.0
17 09:15 Calm 10.00 Fair CLR 73.9 48.2 40% 30.35 0.0
17 08:55 Calm 10.00 Fair CLR 74.3 48.6 40% 30.35 0.0
17 08:35 NW 3 10.00 Fair CLR 74.1 49.8 42% 30.35 0.0
17 08:15 W 3 10.00 Fair CLR 70 50.2 50% 30.34 0.0
17 07:55 W 3 10.00 Fair CLR 67.6 51.1 56% 30.34 0.0
17 07:35 Calm 7.00 Fair CLR 67.1 49.3 53% 30.33 0.0
17 07:15 Calm 10.00 Fair CLR 66.2 47.7 51% 30.33 0.0
17 06:55 Calm 10.00 Fair CLR 65.8 46.2 49% 30.32 0.0
17 06:35 Calm 10.00 Fair CLR 63.3 48.6 59% 30.31 0.0
17 06:15 Calm 10.00 Fair CLR 62.6 47.5 58% 30.3 0.0
17 05:55 SW 5 10.00 Fair CLR 61.2 46.9 71.8 59 60% 30.29 0.0
17 05:35 SW 3 10.00 Fair CLR 60.8 46.4 59% 30.29 0.0
17 05:15 SW 5 10.00 Fair CLR 59.9 46.6 62% 30.28 0.0
17 04:55 Calm 10.00 Fair CLR 60.8 46.8 60% 30.28 0.0
17 04:35 W 5 7.00 Fair CLR 61.9 47.1 59% 30.27 0.0
17 04:15 W 3 10.00 Fair CLR 61.2 48.2 63% 30.26 0.0
17 03:55 Calm 10.00 Fair CLR 61.7 48.2 61% 30.26 0.0
17 03:35 NW 5 10.00 Fair CLR 62.8 47.8 58% 30.25 0.0
17 03:15 Calm 7.00 Fair CLR 62.8 48.2 59% 30.25 0.0
17 02:55 SW 6 10.00 Partly Cloudy SCT100 62.6 48.4 60% 30.24 0.0
17 02:35 N 5 10.00 Fair CLR 66.6 48 51% 30.23 0.0
17 02:15 E 6 10.00 Fair CLR 66.6 47.8 51% 30.23 0.0
17 01:55 NE 6 7.00 Fair CLR 65.1 48.4 55% 30.23 0.0
17 01:35 Calm 10.00 Fair CLR 68.7 46.6 45% 30.22 0.0
17 01:15 Calm 7.00 Fair CLR 67.6 49.6 53% 30.21 0.0
17 00:55 Calm 7.00 Fair CLR 67.8 46.6 47% 30.21 0.0
17 00:35 Calm 7.00 Fair CLR 68.7 46.4 45% 30.21 0.0
17 00:15 W 3 10.00 Fair CLR 69.8 46.4 43% 30.2 0.0
16 23:55 W 5 10.00 Fair CLR 72.5 44.8 86.4 72 37% 30.2 0.0
16 23:35 W 6 10.00 Fair CLR 72.3 44.2 37% 30.21 0.0
16 23:15 Calm 10.00 Fair CLR 74.7 43.3 33% 30.2 0.0
16 22:55 Calm 10.00 Fair CLR 75.7 42.8 31% 77 30.21 0.0
16 22:35 W 3 10.00 Fair CLR 78.1 41.9 28% 78 30.21 0.0
16 22:15 W 3 10.00 Fair CLR 78.1 41.7 27% 78 30.2 0.0
16 21:55 Calm 10.00 Fair CLR 77.7 42.8 29% 78 30.2 0.0
16 21:35 NW 6 10.00 Fair CLR 78.6 42.8 28% 78 30.19 0.0
16 21:15 SW 7 10.00 Partly Cloudy SCT120 78.1 44.1 30% 78 30.2 0.0
16 20:55 Calm 7.00 Partly Cloudy SCT120 75.4 51.4 43% 78 30.19 0.0
16 20:35 Calm 10.00 Fair CLR 75.9 52.5 44% 78 30.19 0.0
16 20:15 Calm 7.00 Fair CLR 77.5 50 38% 78 30.18 0.0
16 19:55 Calm 10.00 Fair CLR 80.2 46.2 30% 79 30.18 0.0
16 19:35 SW 3 10.00 Fair CLR 81.3 45.3 28% 80 30.17 0.0
16 19:15 SW 5 7.00 Fair CLR 82 45.1 27% 80 30.18 0.0
16 18:55 SW 3 7.00 Fair CLR 82.4 43.7 26% 80 30.17 0.0
16 18:35 S 6 10.00 Fair CLR 84.2 42.6 23% 82 30.17 0.0
16 18:15 SW 5 10.00 Fair CLR 86.2 41.9 21% 83 30.17 0.0
16 17:55 S 6 7.00 Fair CLR 84.9 43.5 89.1 74.3 23% 82 30.18 0.0
16 17:35 S 5 10.00 Fair CLR 84.9 44.1 24% 82 30.18 0.0
16 17:15 S 5 10.00 Fair CLR 87.4 41.7 20% 84 30.18 0.0
16 16:55 SE 5 7.00 Fair CLR 88.2 42.6 20% 85 30.18 0.0
16 16:35 E 3 7.00 Fair CLR 83.8 43.7 24% 81 30.18 0.0
16 16:15 Calm 10.00 Fair CLR 83.3 43.3 24% 81 30.18 0.0
16 15:55 W 5 10.00 Fair CLR 86.5 41.7 21% 83 30.18 0.0
16 15:35 N 14 G 23 7.00 Fair CLR 86.7 41.5 20% 83 30.2 0.0
16 15:15 N 14 G 20 10.00 Fair CLR 85.3 46.4 26% 83 30.21 0.0
16 14:55 NW 15 G 21 10.00 Mostly Cloudy SCT039 SCT050 BKN095 80.6 48 32% 80 30.23 0.0
16 14:35 NW 17 G 23 10.00 Light Rain SCT041 BKN050 BKN070 74.3 51.1 44% 30.23 0.0
16 14:15 NW 17 G 29 10.00 Partly Cloudy SCT100 80.6 45.5 29% 79 30.21 0.0
16 13:55 N 10 G 16 10.00 Partly Cloudy SCT100 88.2 44.6 22% 85 30.19 0.0
16 13:35 N 10 G 22 10.00 Partly Cloudy SCT100 88.9 49.3 26% 86 30.18 0.0
16 13:15 NE 5 10.00 Partly Cloudy SCT037 SCT060 SCT070 88 45.7 23% 85 30.18 0.0
16 12:55 N 9 10.00 Light Rain SCT035 SCT055 BKN070 85.1 49.6 29% 83 30.18 0.0
16 12:35 N 3 10.00 Partly Cloudy SCT110 87.6 48.6 26% 85 30.19 0.0
16 12:15 N 10 G 16 10.00 Rain SCT018 SCT024 SCT029 87.4 50.4 28% 85 30.18 0.0
16 11:55 NE 7 10.00 Fair CLR 88 49.1 88 64.4 26% 85 30.18 0.0
16 11:35 N 5 10.00 Fair CLR 87.8 48 25% 85 30.19 0.0
16 11:15 SE 5 10.00 Fair CLR 87.1 48.2 26% 84 30.19 0.0
16 10:55 Calm 10.00 Fair CLR 85.1 48.2 28% 83 30.19 0.0
16 10:35 Calm 10.00 Partly Cloudy SCT100 83.7 47.7 29% 82 30.19 0.0
16 10:15 Calm 10.00 Mostly Cloudy BKN100 82.2 48.7 31% 81 30.2 0.0
16 09:55 Calm 10.00 Partly Cloudy SCT120 80.2 49.1 34% 80 30.2 0.0
16 09:35 S 5 10.00 Mostly Cloudy BKN110 80.1 52 38% 80 30.2 0.0
16 09:15 Calm 10.00 Mostly Cloudy BKN110 76.6 52 42% 78 30.2 0.0
16 08:55 SE 3 10.00 Partly Cloudy SCT110 77 52.2 42% 78 30.2 0.0
16 08:35 Calm 10.00 Fair CLR 74.1 53.1 48% 30.2 0.0
16 08:15 Calm 10.00 Partly Cloudy SCT100 75 53.1 46% 78 30.19 0.0
16 07:55 E 5 10.00 Fair CLR 73.2 53.2 50% 30.19 0.0
16 07:35 Calm 10.00 Fair CLR 71.6 54 54% 30.18 0.0
16 07:15 Calm 7.00 Fair CLR 68.9 53.8 59% 30.18 0.0
16 06:55 Calm 10.00 Fair CLR 67.1 54.1 63% 30.17 0.0
16 06:35 N 3 7.00 Fair CLR 66.2 54.9 67% 30.17 0.0
16 06:15 N 3 10.00 Fair CLR 65.3 55.4 71% 30.17 0.0
16 05:55 N 6 10.00 Fair CLR 64 55.4 66.9 58.8 74% 30.15 0.0
16 05:35 N 6 10.00 Fair CLR 63.5 54.5 73% 30.15 0.0
16 05:15 NE 3 10.00 Fair CLR 63 55.4 76% 30.15 0.0
16 04:55 Calm 10.00 Fair CLR 62.2 55.9 80% 30.14 0.0
16 04:35 Calm 10.00 Fair CLR 61.7 54.5 77% 30.13 0.0
16 04:15 Calm 10.00 Fair CLR 60.8 53.8 78% 30.14 0.0
16 03:55 Calm 10.00 Fair CLR 59.9 53.8 80% 30.14 0.0
16 03:35 Calm 10.00 Fair CLR 60.3 54 80% 30.14 0.0
16 03:15 Calm 10.00 Fair CLR 59.4 53.1 80% 30.15 0.0
16 02:55 Calm 10.00 Fair CLR 60.8 54 78% 30.14 0.0
16 02:35 Calm 10.00 Fair CLR 60.6 53.6 78% 30.15 0.0
16 02:15 W 6 5.00 Fair with Haze CLR 59.9 53.4 79% 30.15 0.0
16 01:55 Calm 10.00 Fair CLR 62.1 54.1 75% 30.16 0.0
16 01:35 Calm 7.00 Fair CLR 63.9 53.8 70% 30.17 0.0
16 01:15 Calm 7.00 Fair CLR 63.5 54.1 72% 30.18 0.0
16 00:55 Calm 10.00 Fair CLR 64.8 54.9 70% 30.18 0.0
16 00:35 Calm 10.00 Fair CLR 62.8 53.8 73% 30.18 0.0
16 00:15 Calm 10.00 Fair CLR 65.8 53.6 65% 30.18 0.0
15 23:55 Calm 10.00 Fair CLR 66.6 54 81.7 65.8 64% 30.18 0.0
15 23:35 Calm 10.00 Fair CLR 66.6 53.6 63% 30.19 0.0
15 23:15 S 3 10.00 Fair CLR 68.2 53.6 60% 30.19 0.0
15 22:55 S 3 10.00 Fair CLR 67.3 53.6 62% 30.21 0.0
15 22:35 Calm 10.00 Fair CLR 68.5 53.4 59% 30.21 0.0
15 22:15 Calm 10.00 Fair CLR 69.8 52.9 55% 30.21 0.0
15 21:55 Calm 10.00 Fair CLR 70.7 52.7 53% 30.21 0.0
15 21:35 N 3 10.00 Fair CLR 71.8 52.5 51% 30.2 0.0
15 21:15 NE 3 10.00 Partly Cloudy SCT120 72.7 51.8 48% 30.2 0.0
15 20:55 N 13 G 22 10.00 Partly Cloudy SCT120 74.5 51.1 44% 30.18 0.0
15 20:35 N 14 G 23 10.00 Fair CLR 76.5 50.2 40% 78 30.18 0.0
15 20:15 N 13 G 23 10.00 Partly Cloudy SCT120 79.7 47.7 33% 79 30.17 0.0
15 19:55 N 16 G 24 10.00 Mostly Cloudy BKN110 81 47.3 31% 80 30.15 0.0
15 19:35 Calm 10.00 Partly Cloudy SCT110 80.1 52.7 39% 80 30.12 0.0
15 18:55 Calm 10.00 Partly Cloudy SCT120 80.8 50 34% 80 30.11 0.0
15 18:35 SE 8 10.00 Fair CLR 80.6 51.1 36% 80 30.11 0.0
15 18:15 E 6 10.00 Fair CLR 80.6 51.8 37% 80 30.11 0.0
15 17:55 S 9 10.00 Fair CLR 83.1 51.4 98.8 78.4 33% 82 30.11 0.0 0.04
15 17:35 S 5 10.00 Fair CLR 81.5 50.9 35% 81 30.12 0.0
15 17:15 S 5 10.00 Fair CLR 81.9 49.8 33% 81 30.12 0.0
15 16:55 S 8 10.00 Fair CLR 80.4 50.9 36% 80 30.13 0.0
15 16:35 S 16 G 25 10.00 Fair CLR 78.8 52.9 41% 79 30.12 0.0
15 16:15 S 12 G 17 10.00 Fair CLR 81 52.5 37% 80 30.14 0.0
15 15:55 S 9 G 16 10.00 Fair CLR 80.4 53.6 40% 80 30.14 0.0
15 15:35 E 7 10.00 Partly Cloudy SCT120 80.4 51.6 37% 80 30.11 0.0
15 15:15 E 9 10.00 Light Rain SCT011 SCT034 BKN120 80.6 53.8 40% 80 30.11 0.0
15 14:55 E 7 10.00 Rain SCT013 SCT046 OVC110 87.1 48.9 27% 84 30.11 0.0 0.03 0.03
15 14:35 SE 7 10.00 Mostly Cloudy BKN110 90.9 43.9 20% 87 30.11 0.0
15 14:15 E 9 G 20 10.00 Partly Cloudy SCT120 93.7 41.7 16% 90 30.1 0.0
15 13:55 E 14 10.00 Fair CLR 95.7 41.9 16% 91 30.1 0.0
15 13:35 E 10 10.00 Fair CLR 98.1 43.5 15% 94 30.11 0.0
15 13:15 NE 10 10.00 Fair CLR 98.6 42.6 15% 94 30.11 0.0
15 12:55 SE 7 10.00 Partly Cloudy SCT120 98.6 41.4 14% 94 30.12 0.0
15 12:35 E 7 10.00 Partly Cloudy SCT120 95.2 42.3 16% 91 30.12 0.0
15 12:15 E 9 10.00 Partly Cloudy SCT120 96.8 45.3 17% 93 30.13 0.0
15 11:55 E 8 10.00 Fair CLR 97.3 44.4 97.5 68.9 16% 93 30.13 0.0
15 11:35 NE 8 10.00 Fair CLR 95.7 45.3 18% 92 30.14 0.0
15 11:15 E 10 10.00 Fair CLR 94.5 46.9 20% 91 30.14 0.0
15 10:55 E 9 10.00 Fair CLR 94.1 44.6 18% 90 30.15 0.0
15 10:35 E 12 10.00 Fair CLR 92.1 47.3 21% 89 30.15 0.0
15 10:15 NE 9 10.00 Fair CLR 91.4 50.2 24% 88 30.15 0.0
15 09:55 NE 12 10.00 Fair CLR 91.6 47.8 22% 88 30.15 0.0
15 09:35 E 6 10.00 Fair CLR 89.6 50.9 27% 87 30.14 0.0
15 09:15 E 5 10.00 Fair CLR 87.6 54.3 32% 86 30.14 0.0
15 08:55 Calm 10.00 Fair CLR 83.5 53.2 35% 82 30.14 0.0
15 08:35 Calm 10.00 Fair CLR 81.1 52.9 38% 81 30.15 0.0
15 08:15 Calm 7.00 Fair CLR 77.5 57.9 51% 79 30.15 0.0
Date Time (mdt) Wind (mph) Vis. (mi.) Weather Sky Cond. Air Dwpt Max. Min. Relative Humidity Wind Chill (°F) Heat Index (°F) altimeter (in) sea level (mb) 1 hr 3 hr 6 hr
6 hour
Temperature (ºF) Pressure Precipitation (in)